Location: Unspecified
(0.0000°N, 0.0000°E)
Time: 18:14:59
(UTC+00:00)

Kosmos-2004 - Pass Details

Date: 26 May 2026
Orbit: 969 x 1012 km, 83.0° (Epoch: 10 June)

Event Time Altitude Azimuth Distance (km) Brightness Sun altitude
Exits shadow 03:03:52 33° 80° (E) 1,572 7.4 -39.8°
Drops below altitude 10° 03:08:43 10° 30° (NNE) 2,726 8.9 -38.7°
Sets 03:11:28 0° 21° (NNE) 3,678 9.6 -38.1°
